• In Hungary
  • List of Countries
  • For 7 days
  • Water Temperature
  • Satellite Maps
  • Weather Map
  • News
  • Weather Widgets
  • user-avatar
    Login

    Hourly Weather Kika

    Today, 18 June, Monday

    Time Temperature Precipitation Wind Pressure Humidity
    00:00 +12°C° 0.4 mm 2 mps 711 mmHg 91%
    01:00 +11°C° 0 mm 1 mps 711 mmHg 92%
    02:00 +11°C° 0.2 mm 1 mps 711 mmHg 92%
    03:00 +11°C° 0.2 mm 1 mps 711 mmHg 93%
    04:00 +10°C° 0.2 mm 2 mps 711 mmHg 93%
    05:00 +13°C° 0 mm 2 mps 712 mmHg 83%
    06:00 +16°C° 0 mm 2 mps 712 mmHg 72%
    07:00 +18°C° 0 mm 3 mps 712 mmHg 61%
    08:00 +20°C° 0 mm 3 mps 713 mmHg 53%
    09:00 +22°C° 0 mm 3 mps 713 mmHg 45%
    10:00 +23°C° 0 mm 4 mps 713 mmHg 37%
    11:00 +25°C° 0 mm 4 mps 713 mmHg 35%
    12:00 +26°C° 0 mm 4 mps 712 mmHg 34%
    13:00 +26°C° 0 mm 5 mps 712 mmHg 33%
    14:00 +26°C° 0 mm 5 mps 712 mmHg 34%
    15:00 +26°C° 0 mm 5 mps 712 mmHg 35%
    16:00 +26°C° 0 mm 4 mps 712 mmHg 36%
    17:00 +23°C° 0 mm 4 mps 712 mmHg 42%
    18:00 +22°C° 0 mm 3 mps 712 mmHg 48%
    19:00 +20°C° 0 mm 2 mps 712 mmHg 54%
    20:00 +18°C° 0 mm 2 mps 712 mmHg 60%
    21:00 +16°C° 0 mm 2 mps 712 mmHg 66%
    22:00 +14°C° 0 mm 1 mps 713 mmHg 73%
    23:00 +14°C° 0 mm 1 mps 713 mmHg 73%

    Tomorrow, 19 June, Tuesday

    Time Temperature Precipitation Wind Pressure Humidity
    00:00 +14°C° 0 mm 1 mps 713 mmHg 73%
    01:00 +13°C° 0 mm 1 mps 713 mmHg 73%
    02:00 +13°C° 0 mm 1 mps 713 mmHg 73%
    03:00 +13°C° 0 mm 1 mps 713 mmHg 74%
    04:00 +13°C° 0 mm 1 mps 712 mmHg 74%
    05:00 +15°C° 0 mm 0 mps 713 mmHg 64%
    06:00 +18°C° 0 mm 0 mps 713 mmHg 55%
    07:00 +21°C° 0 mm 0 mps 713 mmHg 45%
    08:00 +25°C° 0 mm 1 mps 713 mmHg 41%
    09:00 +26°C° 0 mm 1 mps 713 mmHg 36%
    10:00 +28°C° 0 mm 1 mps 712 mmHg 32%
    11:00 +29°C° 0 mm 2 mps 712 mmHg 30%
    12:00 +29°C° 0 mm 2 mps 712 mmHg 28%
    13:00 +30°C° 0 mm 2 mps 711 mmHg 27%
    14:00 +30°C° 0 mm 2 mps 711 mmHg 27%
    15:00 +29°C° 0 mm 2 mps 711 mmHg 27%
    16:00 +29°C° 0 mm 2 mps 710 mmHg 27%
    17:00 +28°C° 0 mm 2 mps 710 mmHg 33%
    18:00 +26°C° 0 mm 2 mps 709 mmHg 39%
    19:00 +24°C° 0 mm 2 mps 709 mmHg 45%
    20:00 +21°C° 0 mm 2 mps 709 mmHg 49%
    21:00 +20°C° 0 mm 1 mps 709 mmHg 52%
    22:00 +18°C° 0 mm 1 mps 708 mmHg 56%
    23:00 +18°C° 0 mm 1 mps 708 mmHg 56%

    Day after tomorrow, 20 June, Wednesday

    Time Temperature Precipitation Wind Pressure Humidity
    00:00 +16°C° 0 mm 1 mps 708 mmHg 55%
    01:00 +16°C° 0 mm 1 mps 708 mmHg 55%
    02:00 +16°C° 0 mm 1 mps 708 mmHg 55%
    03:00 +16°C° 0 mm 1 mps 707 mmHg 56%
    04:00 +16°C° 0 mm 2 mps 707 mmHg 56%
    05:00 +18°C° 0 mm 2 mps 707 mmHg 51%
    06:00 +21°C° 0 mm 2 mps 707 mmHg 46%
    07:00 +24°C° 0 mm 2 mps 707 mmHg 41%
    08:00 +26°C° 0 mm 2 mps 707 mmHg 37%
    09:00 +29°C° 0 mm 2 mps 707 mmHg 33%
    10:00 +31°C° 0 mm 2 mps 707 mmHg 29%
    11:00 +31°C° 0 mm 2 mps 707 mmHg 29%
    12:00 +31°C° 0 mm 2 mps 707 mmHg 28%
    13:00 +33°C° 0 mm 3 mps 706 mmHg 27%
    14:00 +31°C° 0 mm 3 mps 706 mmHg 28%
    15:00 +30°C° 0 mm 2 mps 706 mmHg 30%
    16:00 +29°C° 0 mm 2 mps 705 mmHg 32%
    17:00 +27°C° 0.1 mm 2 mps 705 mmHg 39%
    18:00 +25°C° 0.1 mm 2 mps 705 mmHg 47%
    19:00 +22°C° 0.1 mm 1 mps 706 mmHg 55%
    20:00 +20°C° 0.1 mm 2 mps 706 mmHg 57%
    21:00 +19°C° 0.1 mm 2 mps 706 mmHg 59%
    22:00 +18°C° 0.1 mm 2 mps 706 mmHg 61%
    23:00 +18°C° 0.2 mm 2 mps 706 mmHg 66%

    21 June, Thursday

    Time Temperature Precipitation Wind Pressure Humidity
    00:00 +17°C° 0.2 mm 2 mps 706 mmHg 70%
    01:00 +18°C° 0.2 mm 1 mps 706 mmHg 75%
    02:00 +18°C° 0.2 mm 1 mps 706 mmHg 78%
    03:00 +18°C° 0.2 mm 1 mps 706 mmHg 81%
    04:00 +18°C° 0.2 mm 1 mps 706 mmHg 85%
    05:00 +19°C° 0.1 mm 1 mps 706 mmHg 83%
    06:00 +19°C° 0.1 mm 1 mps 707 mmHg 81%
    07:00 +20°C° 0.1 mm 1 mps 707 mmHg 79%
    08:00 +21°C° 0 mm 1 mps 707 mmHg 73%
    09:00 +23°C° 0 mm 2 mps 707 mmHg 68%
    10:00 +24°C° 0 mm 2 mps 707 mmHg 62%
    11:00 +25°C° 0 mm 2 mps 707 mmHg 57%
    12:00 +26°C° 0 mm 2 mps 707 mmHg 51%
    13:00 +27°C° 0 mm 2 mps 707 mmHg 45%
    14:00 +27°C° 0 mm 2 mps 707 mmHg 44%
    15:00 +27°C° 0 mm 2 mps 706 mmHg 42%
    16:00 +28°C° 0 mm 2 mps 706 mmHg 40%
    17:00 +26°C° 0 mm 1 mps 706 mmHg 46%
    18:00 +25°C° 0 mm 1 mps 706 mmHg 52%
    19:00 +24°C° 0 mm 1 mps 706 mmHg 58%
    20:00 +22°C° 0 mm 1 mps 706 mmHg 65%
    21:00 +20°C° 0 mm 1 mps 706 mmHg 71%
    22:00 +18°C° 0 mm 1 mps 707 mmHg 77%
    23:00 +16°C° 0 mm 1 mps 707 mmHg 78%

    22 June, Friday

    Time Temperature Precipitation Wind Pressure Humidity
    00:00 +16°C° 0 mm 1 mps 707 mmHg 79%
    01:00 +16°C° 0 mm 1 mps 707 mmHg 79%
    02:00 +16°C° 0 mm 1 mps 707 mmHg 81%
    03:00 +16°C° 0 mm 1 mps 707 mmHg 82%
    04:00 +16°C° 0 mm 1 mps 708 mmHg 84%
    05:00 +19°C° 0.1 mm 1 mps 708 mmHg 76%
    06:00 +21°C° 0.1 mm 1 mps 709 mmHg 68%
    07:00 +23°C° 0.1 mm 1 mps 709 mmHg 60%
    08:00 +25°C° 0.2 mm 1 mps 709 mmHg 56%
    09:00 +26°C° 0.2 mm 1 mps 709 mmHg 53%
    10:00 +28°C° 0.2 mm 2 mps 709 mmHg 49%
    11:00 +28°C° 0.6 mm 2 mps 709 mmHg 51%
    12:00 +27°C° 0.6 mm 2 mps 708 mmHg 53%
    13:00 +27°C° 0.6 mm 3 mps 708 mmHg 55%
    14:00 +27°C° 0.7 mm 3 mps 708 mmHg 57%
    15:00 +26°C° 0.7 mm 3 mps 708 mmHg 58%
    16:00 +26°C° 0.7 mm 2 mps 708 mmHg 60%
    17:00 +25°C° 0.2 mm 2 mps 708 mmHg 64%
    18:00 +23°C° 0.2 mm 2 mps 708 mmHg 69%
    19:00 +22°C° 0.2 mm 1 mps 708 mmHg 73%
    20:00 +21°C° 0 mm 1 mps 708 mmHg 78%
    21:00 +20°C° 0 mm 1 mps 708 mmHg 83%
    22:00 +18°C° 0 mm 1 mps 708 mmHg 89%
    23:00 +18°C° 0.1 mm 1 mps 708 mmHg 89%

    23 June, Saturday

    Time Temperature Precipitation Wind Pressure Humidity
    00:00 +18°C° 0.1 mm 1 mps 708 mmHg 90%
    01:00 +16°C° 0.1 mm 1 mps 708 mmHg 91%
    02:00 +16°C° 0.1 mm 1 mps 708 mmHg 92%
    03:00 +16°C° 0.1 mm 1 mps 708 mmHg 92%
    04:00 +16°C° 0.1 mm 1 mps 709 mmHg 93%
    05:00 +18°C° 0 mm 1 mps 709 mmHg 87%
    06:00 +20°C° 0 mm 1 mps 709 mmHg 81%
    07:00 +22°C° 0 mm 1 mps 709 mmHg 75%
    08:00 +23°C° 0 mm 1 mps 709 mmHg 65%
    09:00 +25°C° 0 mm 2 mps 709 mmHg 54%
    10:00 +27°C° 0 mm 2 mps 709 mmHg 44%
    11:00 +27°C° 0 mm 3 mps 709 mmHg 40%
    12:00 +28°C° 0 mm 3 mps 708 mmHg 37%
    13:00 +29°C° 0 mm 3 mps 708 mmHg 33%
    14:00 +29°C° 0 mm 3 mps 708 mmHg 33%
    15:00 +29°C° 0 mm 3 mps 708 mmHg 32%
    16:00 +29°C° 0 mm 3 mps 707 mmHg 31%
    17:00 +27°C° 0 mm 3 mps 707 mmHg 38%
    18:00 +25°C° 0 mm 2 mps 707 mmHg 44%
    19:00 +24°C° 0 mm 2 mps 707 mmHg 50%
    20:00 +21°C° 0 mm 1 mps 707 mmHg 57%
    21:00 +19°C° 0 mm 1 mps 707 mmHg 65%
    22:00 +16°C° 0 mm 1 mps 707 mmHg 72%
    23:00 +15°C° 0 mm 1 mps 707 mmHg 72%
    Show more